User: anonymous   Login
Location: Unspecified
(0.0000°N, 0.0000°E)
Time: 06:47:13
(UTC+00:00)
Language:

ICEYE-X56 - Orbit

View from above orbital plane
View from above orbital plane
View from above satellite
View from above satellite

Ground track
Ground track

The orbit is defined by the following mean orbital elements,

1 64574U          26145.61778942 +.00000000 +00000-0 +24418-3 0 00003
2 64574  97.7721 260.7588 0003291  70.1025 290.0550 14.95459319    08
Epoch (UTC): 25 May 2026 14:49:37
Eccentricity: 0.0003291
inclination: 97.7721°
perigee height: 579 km
apogee height: 583 km
right ascension of ascending node: 260.7588°
argument of perigee: 70.1025°
revolutions per day: 14.95459319
mean anomaly at epoch: 290.0550°

The dashed part of the orbit path shows where the satellite is in the earth's shadow,  

DLR